Location: Ku?niki
(51.4449°N, 17.8974°E)
Time: 04:33:10
(UTC+00:00)

PicSat - Visible Passes

Search period start: 29 June 2022 00:00
Search period end: 09 July 2022 00:00
Orbit: 453 x 459 km, 97.4° (Epoch: 28 June)

Date Brightness Start Highest point End Pass type
(mag) Time Alt. Az. Time Alt. Az. Time Alt. Az.
29 Jun ? 20:44:10 15° SSE 20:46:50 62° ENE 20:50:16 10° N visible
29 Jun ? 22:18:47 10° WSW 22:20:06 12° W 22:21:26 10° WNW visible
30 Jun ? 20:10:49 10° SE 20:13:45 27° ENE 20:16:42 10° N visible
30 Jun ? 21:44:23 14° SW 21:46:35 26° W 21:49:33 10° NW visible
01 Jul ? 21:10:49 18° S 21:13:11 63° WSW 21:16:38 10° NNW visible
02 Jul ? 20:37:13 15° SE 20:39:55 51° ENE 20:43:18 10° N visible
02 Jul ? 22:11:13 10° WSW 22:13:06 14° W 22:15:00 10° WNW visible
03 Jul ? 20:04:03 10° ESE 20:06:48 23° ENE 20:09:34 10° NNE visible
03 Jul ? 21:37:21 16° SSW 21:39:32 31° W 21:42:39 10° NNW visible
04 Jul ? 21:03:43 19° S 21:06:06 78° WSW 21:09:35 10° NNW visible
05 Jul ? 20:30:03 13° SE 20:32:48 42° ENE 20:36:05 10° N visible
05 Jul ? 22:03:48 11° SW 22:05:52 17° W 22:08:10 10° NW visible
06 Jul ? 19:57:05 10° ESE 19:59:37 19° ENE 20:02:10 10° NNE visible
06 Jul ? 21:30:07 18° SSW 21:32:16 37° W 21:35:31 10° NNW visible
07 Jul ? 20:56:24 19° SSE 20:58:47 85° ENE 21:02:16 10° NNW visible
08 Jul ? 20:22:40 12° SE 20:25:27 34° ENE 20:28:37 10° N visible
08 Jul ? 21:56:25 13° SW 21:58:25 20° W 22:01:02 10° NW visible
